Weather History for KONO - February, 2014

Change the Weather History Date:

Thursday, February 13, 2014

  Actual Average Record
Temperature  
Mean Temperature 40 °F 32 °F  
Max Temperature 46 °F 42 °F 56 °F (1967)
Min Temperature 33 °F 23 °F 2 °F (1989)
Degree Days  
Heating Degree Days 25 32  
Month to date heating degree days 469 442  
Since 1 July heating degree days 4416 4185  
Cooling Degree Days 0 0  
Month to date cooling degree days 0 0  
Year to date cooling degree days 0 0  
Moisture  
Dew Point 34 °F    
Average Humidity 83    
Maximum Humidity 100    
Minimum Humidity 65    
Precipitation  
Precipitation T in 0.03 in 0.65 in (1986)
Month to date precipitation 0.88 0.36  
Year to date precipitation 1.52 1.54  
Sea Level Pressure  
Sea Level Pressure 30.09 in    
Wind  
Wind Speed 2 mph (North)    
Max Wind Speed 10 mph    
Max Gust Speed 14 mph    
Visibility 4 miles    
Events Fog    
T = Trace of Precipitation, MM = Missing Value Source: NWS Daily Summary

Daily Weather History Graph

Daily Weather History Graph

Search for Another Location

Airport or City:

Trip Planner

Search our weather history database for the weather conditions in past years. The results will help you decide how hot, cold, wet, or windy it might be!

Date:

Astronomy

Feb. 13, 2014 Rise Set
Actual Time 7:49 AM MST 6:15 PM MST
Civil Twilight 7:20 AM MST 6:44 PM MST
Nautical Twilight 6:46 AM MST 7:18 PM MST
Astronomical Twilight 6:12 AM MST 7:52 PM MST
Moon 5:27 PM MST (2/13) 6:46 AM MST (2/13)
Length of Visible Light 11h 24m
Length of Day
10h 25m
Waxing Gibbous, 99% of the Moon is Illuminated
Feb 13
Waxing Gibbous
Feb 14
Full
Feb 22
Last Quarter
Mar 1
New
Mar 8
First Quarter

Hourly Weather History & Observations

Time (MST) Temp. Windchill Dew Point Humidity Pressure Visibility Wind Dir Wind Speed Gust Speed Precip Events Conditions
12:53 AM 35.1 °F 30.1 °F 33.1 °F 92% 30.04 in 0.2 mi NNW 5.8 mph - N/A Fog Fog
1:53 AM 35.1 °F - 33.1 °F 92% 30.03 in 0.2 mi Calm Calm - N/A Fog Fog
2:53 AM 34.0 °F - 33.1 °F 96% 30.04 in 0.2 mi Calm Calm - N/A Fog Fog
3:53 AM 33.1 °F 30.0 °F 32.0 °F 96% 30.02 in 0.2 mi WNW 3.5 mph - N/A Fog Fog
4:53 AM 34.0 °F - 33.1 °F 96% 30.02 in 0.2 mi Calm Calm - N/A Fog Fog
5:53 AM 33.1 °F - 30.9 °F 92% 30.03 in 0.2 mi Calm Calm - N/A Fog Fog
6:53 AM 33.1 °F 30.0 °F 32.0 °F 96% 30.04 in 0.5 mi Variable 3.5 mph - N/A Fog Fog
7:53 AM 33.1 °F - 32.0 °F 96% 30.05 in 0.2 mi Calm Calm - N/A Fog Fog
8:53 AM 33.1 °F 26.9 °F 32.0 °F 96% 30.07 in 0.2 mi NNW 6.9 mph - N/A Fog Fog
9:06 AM 33.1 °F 30.0 °F 33.1 °F 100% 30.02 in 0.2 mi NNW 3.5 mph - N/A Fog Fog
9:13 AM 34.0 °F 29.8 °F 32.0 °F 92% 30.02 in 0.2 mi NNE 4.6 mph - N/A Fog Fog
9:36 AM 34.0 °F 29.8 °F 33.1 °F 96% 30.04 in 1.0 mi NNE 4.6 mph - N/A   Overcast
9:39 AM 35.1 °F 31.0 °F 34.0 °F 96% 30.04 in 1.8 mi North 4.6 mph - N/A   Overcast
9:42 AM 35.1 °F - 34.0 °F 96% 30.04 in 2.5 mi Calm Calm - N/A   Overcast
9:53 AM 35.1 °F 29.3 °F 34.0 °F 96% 30.11 in 3.0 mi North 6.9 mph - N/A   Overcast
9:56 AM 35.1 °F 30.1 °F 34.0 °F 96% 30.05 in 2.0 mi North 5.8 mph - N/A   Overcast
10:04 AM 35.1 °F 31.0 °F 34.0 °F 96% 30.05 in 1.2 mi NNE 4.6 mph - N/A   Overcast
10:12 AM 36.0 °F - 34.0 °F 93% 30.06 in 2.0 mi Calm Calm - N/A   Overcast
10:23 AM 36.0 °F - 34.0 °F 93% 30.06 in 2.5 mi Calm Calm - N/A   Overcast
10:36 AM 36.0 °F - 34.0 °F 93% 30.06 in 2.0 mi Calm Calm - 0.00 in   Overcast
10:53 AM 36.0 °F - 35.1 °F 97% 30.12 in 2.5 mi Calm Calm - 0.00 in   Overcast
11:21 AM 37.0 °F - 36.0 °F 96% 30.09 in 3.0 mi Calm Calm - N/A   Overcast
11:32 AM 36.0 °F - 35.1 °F 97% 30.10 in 2.5 mi Calm Calm - N/A   Overcast
11:49 AM 37.4 °F 34.9 °F 35.6 °F 93% 30.10 in 3.0 mi SW 3.5 mph - N/A   Overcast
11:53 AM 36.0 °F - 35.1 °F 97% 30.16 in 2.5 mi Calm Calm - N/A   Overcast
12:53 PM 39.9 °F - 36.0 °F 86% 30.15 in 5.0 mi Calm Calm - N/A   Mostly Cloudy
1:53 PM 41.0 °F 39.0 °F 36.0 °F 82% 30.14 in 8.0 mi SSE 3.5 mph - N/A   Partly Cloudy
2:53 PM 44.1 °F 42.5 °F 36.0 °F 73% 30.14 in 10.0 mi ESE 3.5 mph - N/A   Partly Cloudy
3:53 PM 43.0 °F 39.5 °F 36.0 °F 76% 30.14 in 10.0 mi South 5.8 mph - N/A   Clear
4:53 PM 46.0 °F - 35.1 °F 66% 30.14 in 10.0 mi Calm Calm - N/A   Clear
5:53 PM 41.0 °F - 35.1 °F 79% 30.16 in 10.0 mi Calm Calm - N/A   Clear
6:53 PM 39.0 °F - 34.0 °F 82% 30.17 in 10.0 mi Calm Calm - N/A   Clear
7:53 PM 37.0 °F 33.3 °F 33.1 °F 86% 30.16 in 10.0 mi NE 4.6 mph - N/A   Clear
8:53 PM 37.9 °F - 34.0 °F 86% 30.15 in 10.0 mi Calm Calm - N/A   Clear
9:53 PM 37.0 °F - 33.1 °F 86% 30.15 in 10.0 mi Calm Calm - N/A   Clear
10:53 PM 36.0 °F - 32.0 °F 86% 30.16 in 10.0 mi Calm Calm - N/A   Clear
11:53 PM 36.0 °F 31.1 °F 32.0 °F 86% 30.14 in 9.0 mi NNE 5.8 mph - N/A   Clear